TimeCST,TemperatureF,Dew PointF,Humidity,Sea Level PressureIn,VisibilityMPH,Wind Direction,Wind SpeedMPH,Gust SpeedMPH,PrecipitationIn,Events,Conditions,WindDirDegrees,DateUTC
12:00 AM,69,62,72,29.85,12,East,5.8,,,,Scattered Clouds,80,2012-11-26 06:00:00
12:00 AM,69.8,62.6,78,30.01,6.2,East,5.8,-,N/A,,Mostly Cloudy,80,2012-11-26 06:00:00
1:00 AM,69.8,62.6,78,29.98,6.2,East,6.9,-,N/A,,Mostly Cloudy,90,2012-11-26 07:00:00
2:00 AM,69.8,62.6,78,29.96,6.2,East,6.9,-,N/A,,Mostly Cloudy,100,2012-11-26 08:00:00
3:00 AM,70,62,68,29.84,12,Calm,Calm,,,,Scattered Clouds,,2012-11-26 09:00:00
3:00 AM,69.8,62.6,78,29.95,6.2,Calm,Calm,-,N/A,,Mostly Cloudy,0,2012-11-26 09:00:00
4:00 AM,69.8,62.6,78,29.95,6.2,ENE,4.6,-,N/A,,Mostly Cloudy,70,2012-11-26 10:00:00
5:00 AM,69.8,62.6,78,29.96,6.2,ESE,6.9,-,N/A,,Mostly Cloudy,120,2012-11-26 11:00:00
6:00 AM,70,60,64,29.84,12,ESE,10.4,,,,Overcast,110,2012-11-26 12:00:00
6:00 AM,69.8,60.8,73,30.00,6.2,ESE,10.4,-,N/A,,Scattered Clouds,110,2012-11-26 12:00:00
7:00 AM,69.8,62.6,78,30.03,6.2,ESE,5.8,-,N/A,,Mostly Cloudy,110,2012-11-26 13:00:00
8:00 AM,71.6,62.6,73,30.04,6.2,ESE,9.2,-,N/A,,Mostly Cloudy,110,2012-11-26 14:00:00
9:00 AM,74,63,61,29.89,12,ESE,9.2,,,,Scattered Clouds,120,2012-11-26 15:00:00
9:00 AM,75.2,62.6,65,30.05,6.2,ESE,9.2,-,N/A,,Mostly Cloudy,120,2012-11-26 15:00:00
10:00 AM,75.2,62.6,65,30.05,6.2,ESE,11.5,-,N/A,,Mostly Cloudy,120,2012-11-26 16:00:00
11:00 AM,77.0,60.8,57,30.01,6.2,East,11.5,-,N/A,,Mostly Cloudy,90,2012-11-26 17:00:00
12:00 PM,75,62,55,29.84,12,East,9.2,,,,Partly Cloudy,80,2012-11-26 18:00:00
12:00 PM,75.2,62.6,65,30.00,6.2,East,9.2,-,N/A,,Mostly Cloudy,80,2012-11-26 18:00:00
1:00 PM,75.2,62.6,65,29.98,6.2,SE,10.4,-,N/A,,Mostly Cloudy,130,2012-11-26 19:00:00
2:00 PM,78.8,62.6,57,29.97,6.2,ESE,10.4,-,N/A,,Scattered Clouds,120,2012-11-26 20:00:00
3:00 PM,78,63,50,29.83,12,East,8.1,,,,Overcast,100,2012-11-26 21:00:00
3:00 PM,77.0,62.6,61,29.95,6.2,East,8.1,-,N/A,,Scattered Clouds,100,2012-11-26 21:00:00
4:00 PM,77.0,62.6,61,29.96,6.2,SE,4.6,-,N/A,,Mostly Cloudy,140,2012-11-26 22:00:00
4:25 PM,73.4,68.0,83,29.96,6.2,SW,6.9,-,N/A,,Mostly Cloudy,220,2012-11-26 22:25:00
5:00 PM,71.6,66.2,83,29.98,6.2,West,8.1,-,N/A,,Mostly Cloudy,260,2012-11-26 23:00:00
6:00 PM,71.6,66.2,83,30.00,6.2,West,4.6,-,N/A,,Mostly Cloudy,280,2012-11-27 00:00:00
7:00 PM,69.8,66.2,88,30.02,6.2,East,2.3,-,N/A,Rain,Light Rain,100,2012-11-27 01:00:00
8:00 PM,69.8,66.2,88,30.02,6.2,ESE,2.3,-,N/A,,Mostly Cloudy,110,2012-11-27 02:00:00
9:00 PM,68,66,91,29.89,12,East,4.6,,,,Partly Cloudy,100,2012-11-27 03:00:00
9:00 PM,69.8,66.2,88,30.02,6.2,East,4.6,-,N/A,,Mostly Cloudy,100,2012-11-27 03:00:00
10:00 PM,71.6,62.6,73,30.03,6.2,East,9.2,-,N/A,,Scattered Clouds,80,2012-11-27 04:00:00
11:00 PM,71.6,62.6,73,30.03,6.2,ESE,13.8,-,N/A,,Scattered Clouds,110,2012-11-27 05:00:00